This is the latest recevied weather packets stored in our database for station/object 4S6DRJ-13. If no packets are shown the sender has not sent any weather packets the latest 10 day(s).
| Time | Temp. | Humidity | Pressure | Rain* | Wind** | Luminosity | Snow |
|---|---|---|---|---|---|---|---|
| 1787929842 | 28.33° C | 84% | 1010.3 hPa | 0 mm | 1.34 m/s, 229° | 0 W/m² | - |
| 1787929781 | 28.33° C | 84% | 1010.4 hPa | 0 mm | 1.34 m/s, 233° | 0 W/m² | - |
| 1787929720 | 28.33° C | 84% | 1010.4 hPa | 0 mm | 1.34 m/s, 245° | 0 W/m² | - |
| 1787929659 | 28.33° C | 84% | 1010.4 hPa | 0 mm | 0.45 m/s, 238° | 0 W/m² | - |
| 1787929599 | 28.33° C | 84% | 1010.4 hPa | 0 mm | 1.34 m/s, 227° | 0 W/m² | - |
| 1787929537 | 28.33° C | 84% | 1010.2 hPa | 0 mm | 1.34 m/s, 136° | 0 W/m² | - |
| 1787929476 | 28.33° C | 84% | 1010.2 hPa | 0 mm | 0.89 m/s, 240° | 0 W/m² | - |
| 1787929415 | 28.33° C | 84% | 1010.4 hPa | 0 mm | 1.34 m/s, 162° | 0 W/m² | - |
| 1787929354 | 28.33° C | 84% | 1010.2 hPa | 0 mm | 0.89 m/s, 261° | 0 W/m² | - |
| 1787929293 | 28.33° C | 84% | 1010.2 hPa | 0 mm | 0.45 m/s, 304° | 0 W/m² | - |
| 1787929232 | 28.33° C | 84% | 1010.1 hPa | 0 mm | 1.34 m/s, 226° | 0 W/m² | - |
| 1787929171 | 28.33° C | 84% | 1010.2 hPa | 0 mm | 1.79 m/s, 268° | 0 W/m² | - |
| 1787929110 | 28.33° C | 84% | 1010.1 hPa | 0 mm | 2.24 m/s, 230° | 0 W/m² | - |
| 1787929049 | 28.33° C | 84% | 1010.1 hPa | 0 mm | 2.68 m/s, 118° | 0 W/m² | - |
| 1787928988 | 28.33° C | 84% | 1010.1 hPa | 0 mm | 0.89 m/s, 242° | 0 W/m² | - |
| 1787928927 | 28.33° C | 84% | 1010 hPa | 0 mm | 1.34 m/s, 274° | 0 W/m² | - |
| 1787928867 | 28.33° C | 84% | 1010.1 hPa | 0 mm | 2.24 m/s, 268° | 0 W/m² | - |
| 1787928805 | 28.33° C | 84% | 1010.1 hPa | 0 mm | 2.24 m/s, 194° | 0 W/m² | - |
| 1787928744 | 28.33° C | 84% | 1010.1 hPa | 0 mm | 0.89 m/s, 253° | 0 W/m² | - |
| 1787928691 | 28.33° C | 84% | 1010 hPa | 0 mm | 1.79 m/s, 213° | 0 W/m² | - |
| 1787928622 | 28.33° C | 84% | 1010.1 hPa | 0 mm | 0.89 m/s, 224° | 0 W/m² | - |
| 1787928561 | 28.33° C | 84% | 1010 hPa | 0 mm | 1.79 m/s, 228° | 0 W/m² | - |
| 1787928500 | 28.33° C | 84% | 1010 hPa | 0 mm | 1.34 m/s, 200° | 0 W/m² | - |
| 1787928439 | 28.33° C | 84% | 1010 hPa | 0 mm | 1.34 m/s, 333° | 0 W/m² | - |
| 1787928378 | 28.33° C | 84% | 1010 hPa | 0 mm | 2.24 m/s, 232° | 0 W/m² | - |
* Rain latest hour (hover to see other rain measurements)
** Current wind speed in m/s (hover to see current wind gust speed)